Regional Weather Roundup
Issued by NWS

Home | Current Version | Previous Version | Graphics & Text | Print | Product List | Glossary On
Versions: 1 2 3 4 5 6 7 8 9 10 11 12 13 14 15 16 17 18 19 20 21 22 23 24 25 26 27 28 29 30 31 32 33 34 35 36 37 38 39 40 41 42 43 44 45 46 47 48
000
ASUS43 KDMX 222107
RWRIA

WEATHER ROUNDUP FOR IOWA
NATIONAL WEATHER SERVICE DES MOINES IA
400 PM CDT MON SEP 22 2014

NOTE: "FAIR" INDICATES FEW OR NO CLOUDS BELOW 12,000 FEET WITH NO
SIGNIFICANT WEATHER AND/OR OBSTRUCTIONS TO VISIBILITY.

* - THESE STATIONS ARE NOT NWS STATIONS...THUS NOT UNDER NWS
QUALITY CONTROL.  THEY ALSO DO NOT REPORT WEATHER SUCH
AS PRECIPITATION OR FOG.

IAZ001>003-012>014-020>022-031>034-043>046-222200-
   NORTHWEST IOWA

CITY           SKY/WX    TMP DP  RH WIND       PRES   REMARKS
CARROLL *      SUNNY     72  48  43 VRB5G14   30.23F
CHEROKEE *     MOSUNNY   72  48  43 SW6       30.21F
DENISON *      SUNNY     72  50  46 S8        30.21F
LE MARS *      SUNNY     72  50  46 S9G17     30.20F
ORANGE CITY *  SUNNY     73  46  38 S8        30.20F
SHELDON *      SUNNY     72  48  43 S9G15     30.19F
SIOUX CITY     SUNNY     75  49  39 S10       30.20F
SPENCER        MOSUNNY   71  48  43 S9        30.21F
STORM LAKE *   SUNNY     70  52  52 S7G14     30.23F
$$

IAZ055>058-069>071-079>083-090>094-222200-
   SOUTHWEST IOWA

CITY           SKY/WX    TMP DP  RH WIND       PRES   REMARKS
ATLANTIC *     SUNNY     72  48  43 VRB6      30.23F
AUDUBON *      SUNNY     72  43  35 S7        30.24F
CLARINDA *     SUNNY     75  48  38 VRB5      30.25F
COUNCIL BLFS * SUNNY     72  52  49 SE5       30.22F
CRESTON *      SUNNY     72  50  46 S7        30.25F
HARLAN  *      SUNNY     72  50  46 SW9       30.26F
LAMONI         SUNNY     71  52  50 CALM      30.25F
RED OAK *      SUNNY     73  48  40 VRB3      30.23F
SHENANDOAH *   SUNNY     75  48  38 VRB3G12   30.23F
$$

IAZ047>049-059>061-072>074-084-222200-
   CENTRAL IOWA

CITY           SKY/WX    TMP DP  RH WIND       PRES   REMARKS
AMES           SUNNY     72  49  44 S6        30.23F
ANKENY *       SUNNY     72  52  49 CALM      30.24F
CHARITON *     HAZE      72  50  46 CALM      30.25F VSB 3/4
DES MOINES     MOSUNNY   72  49  44 S3        30.23F
GRINNELL*      SUNNY     70  45  40 SE3       30.25F
KNOXVILLE *    SUNNY     70  48  46 CALM      30.23F
MARSHALLTOWN   SUNNY     71  50  47 SW5       30.23F
PELLA *        SUNNY     73  48  40 CALM      30.26F
PERRY *          N/A     73  45  35 S3        30.23F
$$

IAZ004>006-015-016-023>025-035-036-222200-
   NORTH CENTRAL IOWA

CITY           SKY/WX    TMP DP  RH WIND       PRES   REMARKS
ALGONA *       SUNNY     72  48  43 CALM      30.22F
CLARION *        N/A     72  45  37 SW6       30.23F
ESTHERVILLE    SUNNY     71  46  40 SW8       30.21F
FORT DODGE *   SUNNY     72  48  43 SW8       30.23F
MASON CITY     SUNNY     70  46  42 SW6       30.24F
FOREST CITY *  SUNNY     70  46  43 S5        30.21F
IOWA FALLS *     N/A     73  45  35 SW6       30.24F
$$

IAZ007>011-017>019-026>030-037>042-050>054-066-222200-
   NORTHEAST IOWA

CITY           SKY/WX    TMP DP  RH WIND       PRES   REMARKS
CEDAR RAPIDS   SUNNY     69  47  45 CALM      30.24F
CHARLES CITY * SUNNY     70  48  46 W8        30.23F
CLINTON *      SUNNY     70  45  40 N5        30.27F
DECORAH *      SUNNY     70  48  46 VRB7      30.22F
DUBUQUE        SUNNY     68  45  43 W7        30.25F
MONTICELLO *   SUNNY     70  46  43 VRB7      30.24F
OELWEIN *      SUNNY     70  48  46 W8G17     30.24F
WATERLOO       SUNNY     72  48  42 VRB3      30.22F
$$

IAZ064-065-067-068-078-222200-
   EAST CENTRAL IOWA

CITY           SKY/WX    TMP DP  RH WIND       PRES   REMARKS
DAVENPORT      SUNNY     70  41  34 CALM      30.25F
IOWA CITY      SUNNY     70  48  45 CALM      30.26F
MT. PLEASANT * SUNNY     73  41  31 CALM      30.25F
MUSCATINE *    SUNNY     72  43  35 NW7       30.25F
QUAD CITIES    SUNNY     70  44  39 CALM      30.25F
$$

IAZ062-063-075>077-085>089-095>099-222200-
   SOUTHEAST IOWA

CITY           SKY/WX    TMP DP  RH WIND       PRES   REMARKS
BURLINGTON     SUNNY     71  45  39 NE3       30.25F
FAIRFIELD *    SUNNY     72  45  37 CALM      30.25F
FORT MADISON * SUNNY     73  41  31 E3        30.26F HAZE
KEOKUK *       SUNNY     70  46  43 N5        30.25F
OSKALOOSA *      N/A     72  48  43 CALM      30.25F
CENTERVILLE *  SUNNY     70  50  49 E3        30.27S
OTTUMWA        SUNNY     70  46  42 CALM      30.25F
WASHINGTON *   SUNNY     72  45  37 N3        30.25F
$$

ABBREVIATIONS USED IN REMARKS
   TC - TEMPERATURES IN CELSIUS
  WCI - WIND CHILL INDEX
   HX - HEAT INDEX
  VSB - VISIBILITY
$$




USA.gov is the U.S. government's official web portal to all federal, state and local government web resources and services.